MET'MAP v2.0
soon released !

Expected late october,
this new version will be
more efficient, smarter,
and hosted on a brand new
server x3 powerfull...
...and still free !


Not compatible ?
Try the mobile version !

LOG IN : | Subscribe | Disclaimer | Who is Orbifly ? |
ICAO code :

TAF - LFOA Avord - 03 Apr 2020 20:45 UTC
Data Sources :     NOAA   


- Airport Elevation : 580 ft
- No reported NOTAMs.


LFOA - Avord

Latest METAR recorded : 2020/04/03 18:30 LFOA 031830Z AUTO 02003KT CAVOK 12/03 Q1019
NO TAF


MET'MAP, your aeronautical weather chart ! - Copyright ORBIFLY December 2007

Programming & Development : Alexandra Zaïnal
Co-Developer : Marc-Olivier Méhu
Technical & hardware support : Manuel Goepfert
Concept & Financing : Baudouin d'Aumeries